Probability
71 77 86 89 85 81 79 74 61 48 40 34 26 18 12 10 10 12 18 22 19 12 7 4 4 4 7 11 9 6 4 2 2 1 1 0 0 0 0 0 0 0 0
66 75 84 87 84 79 75 68 58 49 42 34 25 18 14 11 9 9 12 16 14 10 7 6 6 6 7 11 12 9 7 5 3 1 0 0 0 0 0 0 0 0 0
55 67 76 77 77 73 68 63 56 50 43 34 24 19 17 11 7 6 6 9 9 7 5 6 9 9 7 8 11 10 8 6 4 2 1 0 0 0 0 0 0 0 0
40 52 59 60 63 63 58 54 51 47 40 29 20 15 13 10 5 3 3 5 6 5 4 6 9 9 5 3 6 9 9 7 4 4 4 2 1 0 0 0 0 0 0
27 36 43 44 47 49 45 41 40 39 31 21 12 7 6 8 6 3 1 2 3 3 4 5 5 5 2 1 4 10 13 12 9 8 9 8 5 3 1 0 0 0 0
17 22 29 31 34 36 34 30 29 27 22 15 7 3 4 6 5 2 0 0 1 1 1 2 2 2 1 1 4 10 16 19 17 13 12 12 12 9 4 1 0 0 0
7 12 18 22 28 31 28 23 21 18 15 11 6 3 3 4 3 1 0 0 0 0 0 1 2 2 2 2 3 7 14 19 19 17 15 16 20 16 8 2 0 0 0
2 6 13 18 25 29 24 19 16 12 9 6 4 2 2 2 1 0 0 0 0 0 0 0 1 2 3 2 1 3 8 13 16 18 18 20 22 20 12 5 3 1 0
1 3 7 12 20 24 22 17 12 8 5 3 1 1 1 1 0 0 0 0 0 0 0 0 0 1 1 1 0 1 2 6 11 16 19 19 20 18 13 9 7 4 2
0 1 2 6 12 17 18 14 8 5 3 2 1 0 0 0 0 0 0 0 0 0 0 0 0 0 0 0 0 0 0 2 6 10 12 13 14 13 10 9 9 9 9
0 0 2 4 8 12 14 13 10 7 4 2 0 0 0 0 0 0 0 0 0 0 0 0 0 0 0 0 0 0 0 0 1 3 5 6 6 7 9 12 14 18 20
0 0 1 3 5 8 10 13 14 13 10 6 3 2 1 0 0 0 0 0 0 0 0 0 0 0 0 0 0 0 0 0 0 0 1 1 1 4 10 18 25 32 37
0 0 0 1 3 5 6 9 14 17 17 14 12 10 6 2 0 0 0 0 0 0 0 0 0 0 0 0 0 0 0 0 0 0 0 0 0 2 9 19 31 41 47
0 0 0 0 1 2 3 4 9 14 18 20 20 21 19 12 5 2 1 0 0 0 0 0 0 0 0 0 0 0 1 0 0 0 0 0 0 1 4 12 23 33 39
0 0 0 0 0 1 1 2 4 8 14 19 24 30 32 25 16 10 6 3 1 0 0 0 0 0 0 0 0 1 2 1 0 0 0 0 0 0 1 4 9 14 17
0 0 0 0 0 0 0 1 2 5 8 13 20 29 36 35 30 23 15 9 6 3 1 0 0 0 0 0 0 0 1 0 0 0 0 0 0 0 0 0 1 3 3
1 0 0 0 0 0 0 0 1 2 3 5 10 17 27 36 40 37 30 22 16 12 8 5 3 1 0 0 0 0 0 0 0 0 0 0 0 0 0 0 0 0 0
1 0 0 0 0 0 0 0 0 1 1 1 2 6 13 25 38 45 46 40 34 29 22 17 11 6 2 1 1 0 0 0 0 0 0 0 0 0 0 0 0 0 0
1 0 0 0 0 0 0 0 0 0 0 0 0 2 5 12 23 37 48 54 54 49 43 33 24 16 8 4 2 0 0 0 0 0 0 0 0 0 0 0 0 0 0
0 0 0 0 0 0 0 0 0 0 0 0 0 0 1 4 9 19 33 48 58 61 57 49 37 25 14 7 3 0 0 0 0 0 0 0 0 0 0 0 0 0 0
0 0 0 0 0 0 0 0 0 0 0 0 0 0 0 1 2 5 13 27 41 53 57 52 43 31 20 12 5 1 0 0 0 0 0 0 0 0 0 0 0 0 0
0 0 0 1 1 1 0 0 0 0 0 0 0 0 0 0 0 0 2 8 17 29 39 42 38 33 27 18 9 3 0 0 0 0 0 0 0 0 0 0 0 0 0
0 0 1 1 2 2 1 0 0 0 0 0 0 0 0 0 0 0 0 1 3 8 17 26 30 31 30 24 15 6 1 0 0 0 0 0 0 0 0 0 0 0 0
0 0 0 0 1 2 1 0 0 0 0 0 0 0 0 0 0 0 0 0 0 0 4 11 18 21 20 20 17 10 4 1 0 0 0 0 0 0 0 0 0 0 0
0 0 0 0 1 2 1 0 0 0 0 0 0 0 0 0 0 0 0 0 0 0 1 3 6 7 7 8 11 9 4 1 0 0 0 0 0 0 0 0 0 0 0
0 0 0 0 1 2 1 0 0 0 0 0 0 0 0 0 0 0 0 0 0 0 0 0 0 0 0 1 4 5 3 0 0 0 0 0 0 0 0 0 0 0 0
Wind_Speed
9 9 7 8 9 8 9 10 11 12 12 12 12 13 13 12 11 11 7 13 15 15 17 17 17 17 16 16 18 20 20 20 20 19 19 19 18 17 17 16 15 14 13
9 9 9 9 9 9 8 9 11 10 10 10 11 12 13 12 11 12 11 10 15 16 16 17 17 17 17 16 17 18 20 21 21 20 20 20 19 18 18 17 17 16 14
10 9 7 8 8 8 9 9 11 10 10 10 12 13 10 11 12 13 13 10 10 16 18 17 16 16 17 17 16 16 18 18 19 19 20 20 20 19 18 18 18 17 16
10 8 7 7 7 6 7 8 8 9 9 9 9 9 9 9 13 13 12 11 10 10 15 18 16 15 16 17 17 16 16 17 17 19 20 21 21 21 20 19 19 18 18
8 6 5 5 5 6 6 8 7 7 8 9 9 8 8 9 10 12 13 13 12 11 10 13 17 15 16 18 18 17 17 17 17 18 20 21 22 22 21 20 20 19 19
5 4 4 4 6 6 6 6 7 7 7 7 8 7 7 9 8 10 11 11 11 12 12 11 11 13 17 16 16 16 17 17 17 18 19 21 22 21 21 21 21 20 19
5 4 4 4 6 6 6 7 6 8 7 5 6 6 7 9 10 8 9 9 10 11 10 10 10 9 9 17 16 15 16 18 18 19 19 20 20 21 21 21 21 21 20
6 4 5 5 5 5 6 6 6 6 6 5 6 6 6 7 8 9 8 9 9 9 10 11 10 9 9 8 11 17 17 17 18 19 19 19 20 20 20 21 21 21 21
8 6 5 5 5 6 6 6 6 8 7 6 7 6 6 5 4 6 7 7 7 7 8 7 9 9 10 9 8 14 17 16 17 19 19 19 19 19 19 20 21 21 21
7 7 6 6 5 6 6 7 7 6 8 7 6 7 7 6 5 3 7 7 7 7 8 6 7 8 9 8 8 6 10 12 14 17 18 19 19 19 19 20 21 22 22
5 6 6 5 5 5 6 7 6 8 7 8 7 6 7 6 8 7 4 4 6 7 7 7 7 7 7 8 7 7 8 10 11 13 14 16 17 19 19 20 22 22 22
4 4 5 4 5 5 5 6 7 9 9 9 8 7 6 6 7 7 6 6 5 5 5 5 6 6 5 6 6 3 2 7 9 11 12 13 15 17 19 20 21 21 22
6 4 4 3 4 4 5 6 7 9 9 10 10 8 8 8 6 6 6 6 5 4 4 5 4 3 2 2 1 3 4 6 8 9 10 11 13 15 17 18 19 20 21
9 7 6 6 5 5 6 5 6 8 8 10 11 11 8 8 7 7 7 6 6 6 6 5 4 3 1 1 2 5 3 3 5 7 9 9 11 12 14 15 16 16 16
10 11 10 9 8 7 6 6 6 7 7 9 10 11 10 9 8 8 7 7 7 6 5 6 5 5 2 2 2 2 2 5 1 3 6 7 8 10 11 12 13 12 12
13 13 13 12 11 10 8 7 7 7 7 8 7 10 10 9 8 8 8 8 8 7 5 4 4 4 2 1 3 3 4 5 6 4 3 5 6 7 9 9 10 10 9
14 14 14 14 13 13 11 10 10 8 8 8 8 9 11 11 9 9 9 9 8 8 7 5 5 4 3 2 4 3 4 4 7 8 8 8 8 9 9 10 10 10 10
14 15 15 15 15 15 14 13 12 11 10 10 9 8 9 8 11 10 9 10 9 9 8 8 6 6 6 5 5 5 5 6 7 11 12 12 12 12 12 12 12 12 11
15 15 15 16 16 16 15 15 14 13 12 11 10 10 9 8 9 8 9 10 9 9 9 7 7 5 5 6 7 6 7 6 8 9 13 14 14 15 15 14 14 14 14
16 15 16 16 16 16 17 16 15 14 13 12 11 11 10 9 8 8 8 9 8 9 9 8 7 7 6 8 7 6 5 5 6 7 9 11 15 16 16 15 16 16 15
16 16 16 16 16 15 15 16 15 15 14 14 13 12 11 10 9 7 5 6 7 7 8 9 8 8 7 9 8 6 7 6 5 4 7 7 8 8 9 13 15 16 16
16 16 16 16 16 15 14 14 14 15 14 14 13 12 11 12 12 12 11 9 8 8 8 8 8 9 9 10 9 9 9 8 5 3 5 6 6 7 7 8 12 16 16
16 15 16 16 16 16 13 12 15 15 14 13 13 11 11 11 13 12 12 12 11 11 10 8 8 9 9 10 11 13 11 9 6 7 7 6 5 7 8 10 13 14 15
14 14 14 15 15 15 14 14 14 15 15 14 13 13 12 10 11 11 11 10 10 11 12 10 9 9 7 7 12 12 11 9 10 6 5 6 5 7 9 9 12 13 14
14 14 13 14 14 13 12 14 14 13 12 14 13 13 13 12 10 9 10 10 9 9 11 12 10 8 5 5 8 10 12 12 8 4 3 5 7 8 7 8 9 12 13
13 13 12 12 12 11 11 14 15 11 12 11 10 11 11 11 9 12 11 10 10 9 9 10 10 9 8 9 13 14 14 13 10 6 5 6 9 7 6 5 7 8 9
Wind_Direction
239 236 235 236 237 236 232 233 240 239 236 234 232 232 232 232 237 237 228 208 213 221 228 231 232 231 228 222 218 216 214 215 216 213 211 211 211 209 206 203 202 201 200
244 240 237 238 240 239 242 244 246 248 244 240 237 236 233 230 231 236 239 222 214 220 227 232 233 231 228 225 221 219 218 218 216 214 213 211 211 211 210 206 204 203 202
243 237 240 242 244 242 239 241 246 247 246 242 238 236 232 231 230 230 235 237 226 216 220 226 228 227 226 225 223 221 220 220 219 216 215 212 210 210 211 209 207 205 203
244 238 236 245 250 250 244 240 239 241 240 240 240 238 234 233 234 231 230 229 232 232 215 214 219 222 223 225 224 222 217 216 217 217 216 214 211 210 209 210 210 207 204
254 239 237 248 257 252 247 249 239 239 243 240 237 230 230 231 235 234 232 232 228 231 234 201 205 216 223 227 227 225 218 213 213 216 217 216 214 211 209 209 210 209 206
278 267 252 254 258 251 247 246 250 241 247 246 248 238 225 228 228 233 234 231 228 228 231 230 212 212 217 225 228 226 220 215 212 213 216 217 216 213 209 209 209 210 209
306 283 269 262 258 252 250 252 245 237 237 236 242 239 229 225 228 229 233 240 233 229 232 230 233 235 209 209 219 224 223 220 216 214 215 215 216 215 211 209 209 210 211
335 311 293 276 266 267 255 253 245 258 248 223 242 247 237 217 212 224 223 223 236 233 229 225 226 228 245 228 205 208 220 224 222 217 215 212 213 214 213 211 210 211 212
348 345 325 306 288 271 257 249 243 243 254 237 235 252 254 244 209 189 215 223 222 230 233 228 226 226 229 238 232 201 209 219 223 222 217 212 210 210 211 213 211 211 213
352 353 344 332 311 288 271 254 240 246 249 248 224 239 267 311 283 211 188 199 207 219 236 236 236 227 230 237 233 240 203 217 225 226 221 214 209 209 209 211 214 213 214
341 350 349 340 328 306 293 276 264 248 243 248 244 225 223 227 244 269 241 192 198 211 218 229 243 245 239 239 241 232 193 212 224 227 224 218 212 210 209 210 214 214 215
310 325 327 332 320 315 306 289 270 249 247 249 254 245 229 225 221 230 241 233 228 218 213 235 241 236 236 244 240 54 198 226 227 225 222 219 215 211 210 210 213 213 214
290 287 294 295 301 301 297 293 282 271 253 243 239 242 242 243 246 236 241 238 236 234 215 220 208 220 226 250 256 22 235 229 229 222 219 218 215 213 210 209 211 212 213
287 287 269 260 258 264 274 278 280 275 266 253 243 241 243 240 237 235 237 237 228 223 207 204 167 160 154 197 47 284 223 176 227 220 218 218 218 215 210 206 207 208 209
279 273 264 256 250 246 250 258 263 272 276 265 254 242 238 239 234 232 231 234 241 237 203 172 189 146 160 102 39 346 31 66 55 210 210 210 209 207 203 199 196 195 195
281 275 268 262 254 244 235 236 247 251 260 266 267 261 248 241 234 228 225 225 233 251 249 164 174 145 103 123 95 67 76 96 71 80 135 163 172 175 175 174 172 169 167
281 273 266 260 255 249 240 233 239 239 244 254 262 261 253 249 242 231 224 220 220 226 234 208 179 156 173 174 126 104 82 76 82 75 90 104 117 125 132 134 136 139 141
278 272 266 259 254 250 243 236 236 237 237 241 245 253 258 252 244 241 231 222 217 217 224 221 194 185 179 160 134 117 96 79 80 78 84 90 96 101 106 110 113 115 117
281 274 267 260 254 251 247 240 236 235 235 237 237 238 243 246 248 241 239 231 221 213 219 218 204 187 171 150 135 114 100 94 88 90 87 87 91 94 96 99 101 102 102
284 277 268 261 255 250 246 241 236 233 233 234 234 234 233 232 238 242 240 241 233 219 211 216 205 188 176 161 154 144 129 109 94 86 83 87 91 91 94 98 101 101 98
285 279 271 262 255 249 243 237 235 233 232 232 229 229 228 222 225 230 237 241 242 227 213 212 209 197 184 170 170 160 139 120 93 103 106 99 101 99 98 100 102 105 102
286 282 273 265 257 250 239 227 229 234 231 230 231 228 225 211 213 217 228 235 241 238 223 216 215 209 196 184 170 157 149 149 130 129 110 95 99 101 101 96 103 107 106
290 285 277 268 260 252 243 218 215 232 233 230 229 227 228 214 200 210 211 219 232 240 244 239 237 231 207 190 173 167 171 168 138 143 123 97 92 92 91 96 104 106 108
290 285 277 270 264 252 229 210 206 225 232 229 228 226 227 228 208 206 207 206 213 219 224 229 240 245 237 198 183 175 154 119 109 118 115 107 104 99 101 103 99 104 107
289 284 275 269 262 252 224 201 199 221 225 226 226 225 222 222 202 192 216 216 214 217 218 222 234 256 274 202 174 155 144 140 133 125 111 115 125 110 100 106 104 101 106
289 286 278 270 260 248 217 195 199 219 220 221 219 223 220 228 193 186 216 222 221 216 208 205 215 225 222 185 171 173 164 158 145 140 157 132 146 135 118 121 132 135 120